Regional Weather Roundup
Issued by NWS Spokane, WA

Home | Current Version | Previous Version | Text Only | Print | Product List | Glossary On
Versions: 1 2 3 4 5 6 7 8 9 10 11 12 13 14 15 16 17 18 19 20 21 22 23 24 25 26 27 28 29 30 31 32 33 34 35 36 37 38 39 40 41 42 43 44 45 46 47 48 49 50
289
NZUS01 KOTX 232010
RWROTX

Eastern Washington/Northern Idaho Roundup
National Weather Service, Spokane WA
100 PM PDT SAT SEP 23 2017

Note: "fair" indicated few or no clouds below 12,000 feet with no
significant weather and/or obstructions to visibility.

...Northeast Washington and Northern Idaho Panhandle...

CITY           SKY/WX    TMP DP  RH WIND       PRES   REMARKS
Spokane Intl   PTSUNNY   58  39  49 W9        30.09S
Spokane Downto MOSUNNY   60  41  49 SW9       30.09S
Coeur d Alene  MOSUNNY   57  41  55 SE7       30.09F
Deer Park      MOSUNNY   60  40  47 S9        30.08S
Sandpoint      PTSUNNY   57  41  54 E7        30.07S
Bonners Ferry  FAIR      57  39  51 E5        30.06F

...Southeast Washington and southern Idaho Panhandle...

CITY           SKY/WX    TMP DP  RH WIND       PRES   REMARKS
Walla Walla    MOSUNNY   64  42  44 CALM      30.08S
Pullman/Moscow PTSUNNY   55  40  56 VRB5      30.12S
Lewiston       PTSUNNY   60  44  55 VRB3      30.10F
Lowell           N/A     58  38  47 S5        30.10S
Grangeville    CLOUDY    50  36  57 N5        30.10F

...Columbia Basin...

CITY           SKY/WX    TMP DP  RH WIND       PRES   REMARKS
Ephrata        MOSUNNY   64  38  38 W6        30.06S
Moses Lake     MOSUNNY   66  41  40 SW9       30.07S
Pasco          SUNNY     68  43  40 S7        30.06F
Richland       CLEAR     69  46  43 CALM      30.06F
Hermiston      SUNNY     68  45  43 NW5       30.06F
Pendleton      SUNNY     64  40  41 S3        30.07S

...East Slopes Cascades...

CITY           SKY/WX    TMP DP  RH WIND       PRES   REMARKS
The Dalles     SUNNY     72  46  39 NW12      30.04F
Yakima         SUNNY     69  40  34 S6        30.05F
Ellensburg     SUNNY     68  40  35 VRB5      30.05S
Wenatchee      MOSUNNY   65  37  35 VRB3      30.05S
Omak           CLOUDY    61  42  49 SE3       30.07S
Sunnyside      CLEAR     64  42  43 SE3       30.06F

...Southern British Columbia...

CITY           SKY/WX    TMP DP  RH WIND       PRES   REMARKS
Penticton      CLOUDY    61  37  41 S5        30.06S
Castlegar      PTSUNNY   63  39  42 S7        30.04F
Cranbrook      MOSUNNY   55  37  50 SE6G18    30.05F
Osoyoos          N/A     61  37  41 SW1         N/A
Creston          N/A     61  43  51 S2          N/A

...Western Montana...

CITY           SKY/WX    TMP DP  RH WIND       PRES   REMARKS
Kalispell      CLOUDY    52  35  52 VRB3      30.08S
Libby            N/A     54  37  54 W3        30.07F
Missoula       CLOUDY    50  35  56 CALM      30.10F

...Neighboring Cities...

CITY           SKY/WX    TMP DP  RH WIND       PRES   REMARKS
Seattle        PTSUNNY   63  51  65 W7        30.11F
Portland       MOSUNNY   64  52  64 VRB3      30.10F
Boise          SUNNY     55  39  54 NW7       30.05F
Great Falls    SUNNY     50  30  46 SW8       30.06F
Calgary        MOSUNNY   48  32  53 SE12      30.04S



USA.gov is the U.S. government's official web portal to all federal, state and local government web resources and services.